| time (UTC) | temp F | wind direction | speed MPH | gust MPH | rain 1hr in | rain 24hr in | rain mn in | humidity % | barometer mb |
| 20260507224242 | 50 | 19 | 0.0 | 0.0 | 0.00 | 0.16 | 0.00 | 89 | 1013.4 |
| 20260507223741 | 50 | 19 | 0.0 | 0.0 | 0.00 | 0.16 | 0.00 | 89 | 1013.4 |
| 20260507223239 | 50 | 19 | 0.0 | 1.0 | 0.00 | 0.16 | 0.00 | 89 | 1013.3 |
| 20260507222740 | 50 | 19 | 0.0 | 1.0 | 0.00 | 0.16 | 0.00 | 89 | 1013.3 |
| 20260507222234 | 50 | 19 | 0.0 | 0.0 | 0.00 | 0.16 | 0.00 | 88 | 1013.3 |
| 20260507221734 | 50 | 19 | 0.0 | 0.0 | 0.00 | 0.16 | 0.00 | 88 | 1013.3 |
| 20260507221232 | 50 | 19 | 0.0 | 0.0 | 0.00 | 0.16 | 0.00 | 88 | 1013.3 |
| 20260507220733 | 50 | 19 | 0.0 | 1.0 | 0.00 | 0.16 | 0.00 | 88 | 1013.2 |
| 20260507220231 | 51 | 19 | 0.0 | 1.0 | 0.00 | 0.16 | 0.00 | 88 | 1013.2 |
| 20260507215731 | 51 | 19 | 0.0 | 2.0 | 0.00 | 0.20 | 0.04 | 88 | 1013.2 |
| 20260507215231 | 51 | 19 | 0.0 | 2.0 | 0.00 | 0.20 | 0.04 | 88 | 1013.1 |
| 20260507214759 | 51 | 19 | 0.0 | 2.0 | 0.00 | 0.20 | 0.04 | 88 | 1013.1 |
| 20260507214239 | 51 | 19 | 0.0 | 2.0 | 0.00 | 0.20 | 0.04 | 88 | 1013.1 |
| 20260507213736 | 51 | 19 | 1.0 | 2.0 | 0.00 | 0.20 | 0.04 | 87 | 1013.0 |
| 20260507213252 | 51 | 19 | 0.0 | 2.0 | 0.00 | 0.20 | 0.04 | 87 | 1013.0 |
| 20260507212730 | 51 | 19 | 0.0 | 2.0 | 0.00 | 0.20 | 0.04 | 87 | 1013.0 |
| 20260507212229 | 52 | 19 | 0.0 | 2.0 | 0.00 | 0.20 | 0.04 | 87 | 1012.9 |
| 20260507211728 | 52 | 19 | 0.0 | 0.0 | 0.00 | 0.20 | 0.04 | 87 | 1013.0 |
| 20260507211242 | 52 | 19 | 0.0 | 2.0 | 0.00 | 0.20 | 0.04 | 87 | 1012.9 |
| 20260507210740 | 52 | 19 | 0.0 | 2.0 | 0.00 | 0.20 | 0.04 | 87 | 1013.0 |
| 20260507210240 | 52 | 19 | 0.0 | 0.0 | 0.00 | 0.20 | 0.04 | 86 | 1012.9 |
| 20260507205739 | 52 | 19 | 0.0 | 0.0 | 0.00 | 0.24 | 0.04 | 86 | 1013.0 |
| 20260507205236 | 53 | 19 | 0.0 | 1.0 | 0.00 | 0.24 | 0.04 | 86 | 1013.0 |
| 20260507204735 | 53 | 19 | 0.0 | 4.0 | 0.00 | 0.24 | 0.04 | 86 | 1012.8 |
| 20260507204233 | 53 | 19 | 0.0 | 4.0 | 0.00 | 0.24 | 0.04 | 86 | 1012.7 |
| 20260507203729 | 53 | 18 | 0.0 | 2.0 | 0.00 | 0.24 | 0.04 | 86 | 1012.6 |
| 20260507203228 | 53 | 233 | 0.0 | 0.0 | 0.00 | 0.24 | 0.04 | 85 | 1012.7 |
| 20260507202756 | 53 | 233 | 0.0 | 0.0 | 0.00 | 0.24 | 0.04 | 85 | 1012.7 |
| 20260507202234 | 53 | 233 | 0.0 | 0.0 | 0.00 | 0.24 | 0.04 | 85 | 1012.6 |
| 20260507201750 | 53 | 233 | 0.0 | 0.0 | 0.00 | 0.24 | 0.04 | 85 | 1012.5 |
| 20260507201227 | 54 | 233 | 0.0 | 0.0 | 0.00 | 0.24 | 0.04 | 84 | 1012.4 |
| 20260507200755 | 54 | 233 | 0.0 | 0.0 | 0.00 | 0.24 | 0.04 | 84 | 1012.4 |
| 20260507200250 | 54 | 233 | 0.0 | 0.0 | 0.00 | 0.24 | 0.04 | 83 | 1012.4 |
| 20260507195730 | 54 | 233 | 0.0 | 0.0 | 0.00 | 0.24 | 0.04 | 83 | 1012.3 |
| 20260507195243 | 55 | 233 | 0.0 | 0.0 | 0.00 | 0.24 | 0.04 | 83 | 1012.1 |
| 20260507194725 | 55 | 233 | 0.0 | 0.0 | 0.00 | 0.24 | 0.04 | 82 | 1012.1 |
| 20260507194242 | 55 | 233 | 0.0 | 0.0 | 0.00 | 0.24 | 0.04 | 81 | 1012.1 |
| 20260507193742 | 55 | 233 | 0.0 | 0.0 | 0.00 | 0.24 | 0.04 | 81 | 1012.0 |
| 20260507193259 | 56 | 233 | 0.0 | 0.0 | 0.00 | 0.24 | 0.04 | 81 | 1011.9 |
| 20260507192733 | 56 | 233 | 0.0 | 0.0 | 0.00 | 0.24 | 0.04 | 80 | 1011.8 |
| 20260507192230 | 57 | 233 | 0.0 | 0.0 | 0.00 | 0.24 | 0.04 | 80 | 1011.7 |
| 20260507191800 | 57 | 233 | 0.0 | 0.0 | 0.00 | 0.24 | 0.04 | 79 | 1011.7 |
| 20260507191238 | 57 | 233 | 0.0 | 0.0 | 0.00 | 0.24 | 0.04 | 78 | 1011.6 |
| 20260507190753 | 58 | 233 | 0.0 | 0.0 | 0.00 | 0.24 | 0.04 | 77 | 1011.5 |
| 20260507190231 | 58 | 233 | 0.0 | 0.0 | 0.00 | 0.24 | 0.04 | 76 | 1011.5 |
| 20260507185731 | 59 | 233 | 0.0 | 0.0 | 0.00 | 0.94 | 0.04 | 75 | 1011.4 |
| 20260507185228 | 59 | 233 | 0.0 | 0.0 | 0.00 | 0.94 | 0.04 | 74 | 1011.4 |
| 20260507184746 | 60 | 233 | 0.0 | 0.0 | 0.00 | 0.94 | 0.04 | 74 | 1011.4 |
| 20260507184253 | 60 | 233 | 0.0 | 0.0 | 0.00 | 0.94 | 0.04 | 72 | 1011.3 |
| 20260507183730 | 61 | 233 | 0.0 | 0.0 | 0.00 | 0.94 | 0.04 | 71 | 1011.3 |
| 20260507183232 | 62 | 233 | 0.0 | 0.0 | 0.00 | 0.94 | 0.04 | 70 | 1011.3 |
| 20260507182732 | 63 | 233 | 0.0 | 0.0 | 0.00 | 0.94 | 0.04 | 70 | 1011.2 |
| 20260507182247 | 63 | 233 | 0.0 | 0.0 | 0.00 | 0.94 | 0.04 | 67 | 1011.2 |
| 20260507181741 | 64 | 233 | 0.0 | 1.0 | 0.00 | 0.94 | 0.04 | 65 | 1011.1 |
| 20260507181238 | 64 | 233 | 0.0 | 2.0 | 0.00 | 0.94 | 0.04 | 61 | 1011.0 |
| 20260507180736 | 65 | 233 | 1.0 | 3.0 | 0.00 | 0.94 | 0.04 | 60 | 1011.1 |
| 20260507180238 | 65 | 234 | 1.0 | 3.0 | 0.00 | 0.94 | 0.04 | 60 | 1011.0 |
| 20260507175729 | 65 | 231 | 2.0 | 4.0 | 0.00 | 1.46 | 0.04 | 58 | 1011.0 |
| 20260507175228 | 66 | 232 | 1.0 | 5.0 | 0.00 | 1.46 | 0.04 | 57 | 1010.9 |
| 20260507174729 | 66 | 219 | 1.0 | 5.0 | 0.00 | 1.46 | 0.04 | 56 | 1010.9 |
| 20260507174229 | 66 | 220 | 2.0 | 7.0 | 0.00 | 1.46 | 0.04 | 55 | 1010.7 |
| 20260507173727 | 67 | 229 | 3.0 | 7.0 | 0.00 | 1.46 | 0.04 | 55 | 1010.7 |
| 20260507173302 | 67 | 242 | 3.0 | 5.0 | 0.00 | 1.46 | 0.04 | 55 | 1010.7 |
| 20260507172739 | 68 | 148 | 3.0 | 7.0 | 0.00 | 1.46 | 0.04 | 54 | 1010.7 |
| 20260507172237 | 69 | 167 | 3.0 | 7.0 | 0.00 | 1.46 | 0.04 | 53 | 1010.6 |
| 20260507171732 | 69 | 208 | 3.0 | 6.0 | 0.00 | 1.46 | 0.04 | 51 | 1010.6 |
| 20260507171232 | 69 | 202 | 3.0 | 6.0 | 0.00 | 1.46 | 0.04 | 52 | 1010.6 |
| 20260507170732 | 70 | 227 | 2.0 | 7.0 | 0.00 | 1.46 | 0.04 | 51 | 1010.5 |
| 20260507170231 | 70 | 175 | 3.0 | 7.0 | 0.00 | 1.46 | 0.04 | 50 | 1010.6 |
| 20260507165730 | 70 | 201 | 3.0 | 8.0 | 0.00 | 1.46 | 0.04 | 51 | 1010.5 |
| 20260507165236 | 70 | 238 | 3.0 | 9.0 | 0.00 | 1.46 | 0.04 | 50 | 1010.5 |
| 20260507164755 | 70 | 244 | 5.0 | 9.0 | 0.00 | 1.46 | 0.04 | 51 | 1010.5 |
| 20260507164228 | 70 | 227 | 4.0 | 9.0 | 0.00 | 1.46 | 0.04 | 52 | 1010.6 |
| 20260507163729 | 70 | 206 | 5.0 | 9.0 | 0.00 | 1.46 | 0.04 | 51 | 1010.4 |
| 20260507163229 | 71 | 190 | 5.0 | 9.0 | 0.00 | 1.46 | 0.04 | 51 | 1010.4 |
| 20260507162729 | 71 | 203 | 5.0 | 7.0 | 0.00 | 1.46 | 0.04 | 48 | 1010.4 |
| 20260507162232 | 71 | 244 | 2.0 | 7.0 | 0.00 | 1.46 | 0.04 | 48 | 1010.4 |
| 20260507161752 | 71 | 280 | 2.0 | 8.0 | 0.00 | 1.46 | 0.04 | 47 | 1010.3 |
| 20260507161226 | 71 | 259 | 3.0 | 8.0 | 0.00 | 1.46 | 0.04 | 48 | 1010.4 |
| 20260507160734 | 71 | 221 | 3.0 | 5.0 | 0.00 | 1.46 | 0.04 | 49 | 1010.4 |
| 20260507160232 | 71 | 261 | 1.0 | 6.0 | 0.00 | 1.46 | 0.04 | 48 | 1010.3 |
| 20260507155731 | 70 | 32 | 0.0 | 7.0 | 0.00 | 1.46 | 0.04 | 49 | 1010.4 |
| 20260507155226 | 71 | 250 | 4.0 | 7.0 | 0.00 | 1.46 | 0.04 | 46 | 1010.3 |
| 20260507154813 | 71 | 246 | 3.0 | 8.0 | 0.00 | 1.46 | 0.04 | 48 | 1010.4 |
| 20260507154252 | 71 | 211 | 5.0 | 8.0 | 0.00 | 1.46 | 0.04 | 47 | 1010.4 |
| 20260507153811 | 71 | 190 | 4.0 | 8.0 | 0.00 | 1.46 | 0.04 | 51 | 1010.5 |
| 20260507153251 | 70 | 280 | 2.0 | 8.0 | 0.00 | 1.46 | 0.04 | 51 | 1010.3 |
| 20260507152750 | 71 | 249 | 5.0 | 8.0 | 0.00 | 1.46 | 0.04 | 48 | 1010.4 |
| 20260507152247 | 71 | 155 | 2.0 | 7.0 | 0.00 | 1.46 | 0.04 | 49 | 1010.3 |
| 20260507151747 | 71 | 199 | 3.0 | 9.0 | 0.00 | 1.46 | 0.04 | 51 | 1010.4 |
| 20260507151245 | 71 | 195 | 5.0 | 8.0 | 0.00 | 1.46 | 0.04 | 51 | 1010.4 |
| 20260507150746 | 72 | 168 | 2.0 | 5.0 | 0.00 | 1.46 | 0.04 | 51 | 1010.4 |
| 20260507150246 | 71 | 228 | 1.0 | 7.0 | 0.00 | 1.46 | 0.04 | 46 | 1010.4 |
| 20260507145742 | 70 | 207 | 2.0 | 7.0 | 0.00 | 1.46 | 0.04 | 50 | 1010.5 |
| 20260507145306 | 71 | 217 | 4.0 | 6.0 | 0.00 | 1.46 | 0.04 | 50 | 1010.6 |
| 20260507144742 | 71 | 296 | 3.0 | 6.0 | 0.00 | 1.46 | 0.04 | 50 | 1010.5 |
| 20260507144243 | 70 | 99 | 1.0 | 7.0 | 0.00 | 1.46 | 0.04 | 52 | 1010.5 |
| 20260507143810 | 69 | 121 | 1.0 | 7.0 | 0.00 | 1.46 | 0.04 | 53 | 1010.5 |
| 20260507143245 | 70 | 121 | 3.0 | 7.0 | 0.00 | 1.46 | 0.04 | 51 | 1010.6 |
| 20260507142741 | 71 | 250 | 3.0 | 7.0 | 0.00 | 1.46 | 0.04 | 51 | 1010.6 |
| 20260507142238 | 71 | 295 | 0.0 | 9.0 | 0.00 | 1.46 | 0.04 | 52 | 1010.5 |
| 20260507141736 | 70 | 243 | 6.0 | 9.0 | 0.00 | 1.46 | 0.04 | 50 | 1010.7 |
| 20260507141232 | 69 | 221 | 3.0 | 8.0 | 0.00 | 1.46 | 0.04 | 51 | 1010.6 |
| 20260507140754 | 69 | 331 | 4.0 | 8.0 | 0.00 | 1.46 | 0.04 | 51 | 1010.8 |
| 20260507140232 | 69 | 29 | 4.0 | 8.0 | 0.00 | 1.46 | 0.04 | 52 | 1010.8 |
| 20260507135731 | 70 | 202 | 1.0 | 8.0 | 0.00 | 1.89 | 0.04 | 51 | 1010.8 |
| 20260507135240 | 70 | 171 | 5.0 | 7.0 | 0.00 | 1.89 | 0.04 | 54 | 1010.8 |
| 20260507134739 | 70 | 126 | 2.0 | 9.0 | 0.00 | 1.89 | 0.04 | 53 | 1010.8 |
| 20260507134238 | 70 | 169 | 3.0 | 9.0 | 0.00 | 1.89 | 0.04 | 57 | 1011.0 |
| 20260507133737 | 71 | 165 | 4.0 | 8.0 | 0.00 | 1.89 | 0.04 | 55 | 1011.0 |
| 20260507133234 | 70 | 216 | 5.0 | 8.0 | 0.00 | 1.89 | 0.04 | 54 | 1011.0 |
| 20260507132731 | 70 | 306 | 3.0 | 7.0 | 0.00 | 1.89 | 0.04 | 57 | 1011.0 |
| 20260507132233 | 70 | 233 | 2.0 | 9.0 | 0.00 | 1.89 | 0.04 | 56 | 1011.0 |
| 20260507131733 | 69 | 207 | 4.0 | 10.0 | 0.00 | 1.89 | 0.04 | 59 | 1011.0 |
| 20260507131235 | 67 | 128 | 4.0 | 10.0 | 0.00 | 1.89 | 0.04 | 61 | 1011.1 |
| 20260507130756 | 67 | 223 | 4.0 | 10.0 | 0.00 | 1.89 | 0.04 | 58 | 1011.1 |
| 20260507130236 | 68 | 180 | 3.0 | 10.0 | 0.00 | 1.89 | 0.04 | 59 | 1011.4 |
| 20260507125730 | 68 | 232 | 4.0 | 10.0 | 0.00 | 3.19 | 0.04 | 56 | 1011.2 |
| 20260507125229 | 69 | 238 | 5.0 | 10.0 | 0.00 | 3.19 | 0.04 | 53 | 1011.2 |
| 20260507124757 | 68 | 257 | 5.0 | 8.0 | 0.00 | 3.19 | 0.04 | 56 | 1011.3 |
| 20260507124253 | 69 | 47 | 1.0 | 8.0 | 0.00 | 3.19 | 0.04 | 57 | 1011.3 |
| 20260507123726 | 69 | 247 | 3.0 | 10.0 | 0.00 | 3.19 | 0.04 | 59 | 1011.3 |
| 20260507123226 | 69 | 236 | 7.0 | 10.0 | 0.00 | 3.19 | 0.04 | 56 | 1011.3 |
| 20260507122726 | 68 | 234 | 5.0 | 10.0 | 0.00 | 3.19 | 0.04 | 59 | 1011.3 |
| 20260507122227 | 68 | 150 | 5.0 | 10.0 | 0.00 | 3.19 | 0.04 | 60 | 1011.3 |
| 20260507121741 | 68 | 187 | 5.0 | 11.0 | 0.00 | 3.19 | 0.04 | 64 | 1011.3 |
| 20260507121312 | 68 | 253 | 7.0 | 11.0 | 0.00 | 3.19 | 0.04 | 58 | 1011.3 |
| 20260507120749 | 66 | 180 | 3.0 | 7.0 | 0.00 | 3.19 | 0.04 | 61 | 1011.3 |
| 20260507120250 | 66 | 229 | 4.0 | 11.0 | 0.00 | 3.19 | 0.04 | 58 | 1011.3 |
| 20260507115749 | 67 | 238 | 6.0 | 11.0 | 0.00 | 3.19 | 0.04 | 57 | 1011.4 |
| 20260507115247 | 68 | 132 | 4.0 | 8.0 | 0.00 | 3.19 | 0.04 | 59 | 1011.4 |
| 20260507114724 | 67 | 226 | 2.0 | 11.0 | 0.00 | 3.19 | 0.04 | 57 | 1011.4 |
| 20260507114239 | 66 | 294 | 4.0 | 11.0 | 0.00 | 3.19 | 0.04 | 61 | 1011.4 |
| 20260507113738 | 65 | 134 | 4.0 | 8.0 | 0.00 | 3.19 | 0.04 | 66 | 1011.5 |
| 20260507113238 | 64 | 169 | 1.0 | 3.0 | 0.00 | 3.19 | 0.04 | 63 | 1011.6 |
| 20260507112739 | 65 | 177 | 0.0 | 10.0 | 0.00 | 3.19 | 0.04 | 63 | 1011.6 |
| 20260507112239 | 65 | 157 | 4.0 | 10.0 | 0.00 | 3.19 | 0.04 | 62 | 1011.7 |
| 20260507111735 | 65 | 286 | 2.0 | 7.0 | 0.00 | 3.19 | 0.04 | 63 | 1011.7 |
| 20260507111234 | 65 | 249 | 3.0 | 7.0 | 0.00 | 3.19 | 0.04 | 63 | 1011.7 |
| 20260507110755 | 64 | 256 | 4.0 | 7.0 | 0.00 | 3.19 | 0.04 | 66 | 1011.9 |
| 20260507110235 | 64 | 252 | 2.0 | 9.0 | 0.00 | 3.19 | 0.04 | 65 | 1011.9 |
| 20260507105733 | 64 | 221 | 5.0 | 9.0 | 0.00 | 3.31 | 0.04 | 66 | 1012.1 |
| 20260507105230 | 65 | 199 | 3.0 | 8.0 | 0.00 | 3.31 | 0.04 | 67 | 1012.1 |
| 20260507104724 | 63 | 296 | 3.0 | 5.0 | 0.00 | 3.31 | 0.04 | 69 | 1012.1 |
| 20260507104252 | 63 | 28 | 2.0 | 8.0 | 0.00 | 3.31 | 0.04 | 67 | 1012.2 |
| 20260507103750 | 63 | 346 | 5.0 | 8.0 | 0.00 | 3.31 | 0.04 | 69 | 1012.1 |
| 20260507103227 | 64 | 338 | 3.0 | 6.0 | 0.00 | 3.31 | 0.04 | 68 | 1012.2 |
| 20260507102727 | 64 | 293 | 3.0 | 6.0 | 0.00 | 3.31 | 0.04 | 67 | 1012.3 |
| 20260507102227 | 64 | 317 | 2.0 | 5.0 | 0.00 | 3.31 | 0.04 | 64 | 1012.3 |
| 20260507101745 | 65 | 322 | 3.0 | 4.0 | 0.00 | 3.31 | 0.04 | 67 | 1012.3 |
| 20260507101313 | 63 | 60 | 0.0 | 2.0 | 0.00 | 3.31 | 0.04 | 72 | 1012.3 |
| 20260507100749 | 62 | 145 | 1.0 | 3.0 | 0.00 | 3.31 | 0.04 | 71 | 1012.3 |
| 20260507100306 | 62 | 145 | 2.0 | 3.0 | 0.00 | 3.31 | 0.04 | 70 | 1012.4 |
| 20260507095742 | 62 | 111 | 0.0 | 6.0 | 0.00 | 3.31 | 0.04 | 70 | 1012.3 |
| 20260507095305 | 62 | 179 | 1.0 | 3.0 | 0.00 | 3.31 | 0.04 | 70 | 1012.4 |
| 20260507094802 | 62 | 230 | 0.0 | 5.0 | 0.00 | 3.31 | 0.04 | 71 | 1012.4 |
| 20260507094241 | 62 | 158 | 2.0 | 5.0 | 0.00 | 3.31 | 0.04 | 72 | 1012.5 |
| 20260507093737 | 62 | 196 | 1.0 | 5.0 | 0.00 | 3.31 | 0.04 | 70 | 1012.4 |
| 20260507093235 | 63 | 173 | 2.0 | 4.0 | 0.00 | 3.31 | 0.04 | 70 | 1012.4 |
| 20260507092804 | 64 | 172 | 1.0 | 7.0 | 0.00 | 3.31 | 0.04 | 67 | 1012.3 |
| 20260507092243 | 65 | 166 | 5.0 | 9.0 | 0.00 | 3.31 | 0.04 | 66 | 1012.3 |
| 20260507091738 | 65 | 128 | 2.0 | 9.0 | 0.00 | 3.31 | 0.04 | 67 | 1012.2 |
| 20260507091258 | 65 | 212 | 3.0 | 7.0 | 0.00 | 3.31 | 0.04 | 70 | 1012.3 |
| 20260507090737 | 64 | 129 | 2.0 | 6.0 | 0.00 | 3.31 | 0.04 | 70 | 1012.2 |
| 20260507090236 | 63 | 149 | 1.0 | 9.0 | 0.00 | 3.31 | 0.04 | 69 | 1012.4 |
| 20260507085735 | 63 | 140 | 3.0 | 9.0 | 0.00 | 3.31 | 0.04 | 68 | 1012.3 |
| 20260507085235 | 62 | 140 | 2.0 | 5.0 | 0.00 | 3.31 | 0.04 | 71 | 1012.3 |
| 20260507084754 | 62 | 68 | 2.0 | 4.0 | 0.00 | 3.31 | 0.04 | 68 | 1012.3 |
| 20260507084301 | 61 | 198 | 2.0 | 8.0 | 0.00 | 3.31 | 0.04 | 73 | 1012.3 |
| 20260507083738 | 61 | 140 | 4.0 | 8.0 | 0.00 | 3.31 | 0.04 | 74 | 1012.3 |
| 20260507083232 | 60 | 355 | 2.0 | 5.0 | 0.00 | 3.31 | 0.04 | 74 | 1012.2 |
| 20260507082752 | 60 | 91 | 3.0 | 6.0 | 0.00 | 3.31 | 0.04 | 74 | 1012.3 |
| 20260507082229 | 59 | 9 | 1.0 | 6.0 | 0.00 | 3.31 | 0.04 | 74 | 1012.2 |
| 20260507081728 | 59 | 53 | 3.0 | 5.0 | 0.00 | 3.31 | 0.04 | 75 | 1012.2 |
| 20260507081230 | 59 | 322 | 0.0 | 4.0 | 0.00 | 3.31 | 0.04 | 76 | 1012.2 |
| 20260507080732 | 59 | 9 | 3.0 | 4.0 | 0.00 | 3.31 | 0.04 | 76 | 1012.1 |
| 20260507080230 | 58 | 344 | 1.0 | 5.0 | 0.00 | 3.31 | 0.04 | 76 | 1012.1 |
| 20260507075729 | 59 | 346 | 3.0 | 8.0 | 0.00 | 3.35 | 0.04 | 77 | 1012.1 |
| 20260507075259 | 58 | 53 | 3.0 | 8.0 | 0.00 | 3.35 | 0.04 | 77 | 1012.1 |
| 20260507074738 | 58 | 14 | 2.0 | 5.0 | 0.00 | 3.35 | 0.04 | 77 | 1012.0 |
| 20260507074233 | 58 | 77 | 2.0 | 6.0 | 0.00 | 3.35 | 0.04 | 77 | 1012.0 |
| 20260507073733 | 59 | 74 | 3.0 | 6.0 | 0.00 | 3.35 | 0.04 | 80 | 1012.0 |
| 20260507073233 | 58 | 17 | 2.0 | 6.0 | 0.00 | 3.35 | 0.04 | 79 | 1012.0 |
| 20260507072751 | 58 | 9 | 4.0 | 9.0 | 0.00 | 3.35 | 0.04 | 82 | 1012.0 |
| 20260507072230 | 56 | 350 | 5.0 | 9.0 | 0.00 | 3.35 | 0.04 | 84 | 1012.0 |
| 20260507071731 | 55 | 338 | 5.0 | 8.0 | 0.00 | 3.35 | 0.04 | 84 | 1012.1 |
| 20260507071230 | 55 | 337 | 4.0 | 6.0 | 0.00 | 3.35 | 0.04 | 86 | 1012.1 |
| 20260507070759 | 55 | 319 | 4.0 | 9.0 | 0.00 | 3.35 | 0.04 | 86 | 1012.0 |
| 20260507070239 | 54 | 355 | 4.0 | 9.0 | 0.00 | 3.35 | 0.04 | 86 | 1012.0 |
| 20260507065756 | 54 | 341 | 4.0 | 9.0 | 0.00 | 3.43 | 0.04 | 87 | 1011.9 |
| 20260507065233 | 54 | 355 | 6.0 | 9.0 | 0.00 | 3.43 | 0.04 | 87 | 1012.0 |
| 20260507064733 | 53 | 5 | 5.0 | 9.0 | 0.00 | 3.43 | 0.04 | 87 | 1011.8 |
| 20260507064232 | 53 | 351 | 4.0 | 6.0 | 0.00 | 3.43 | 0.04 | 88 | 1011.7 |
| 20260507063731 | 53 | 29 | 4.0 | 8.0 | 0.00 | 3.43 | 0.04 | 88 | 1011.8 |
| 20260507063229 | 53 | 314 | 5.0 | 9.0 | 0.00 | 3.43 | 0.04 | 88 | 1011.7 |
| 20260507062800 | 52 | 355 | 4.0 | 9.0 | 0.00 | 3.43 | 0.04 | 88 | 1011.8 |
| 20260507062238 | 52 | 355 | 4.0 | 9.0 | 0.00 | 3.43 | 0.04 | 89 | 1011.7 |
| 20260507061738 | 52 | 29 | 3.0 | 10.0 | 0.00 | 3.43 | 0.04 | 89 | 1011.6 |
| 20260507061236 | 52 | 351 | 5.0 | 10.0 | 0.00 | 3.43 | 0.04 | 90 | 1011.6 |
| 20260507060729 | 52 | 49 | 4.0 | 5.0 | 0.00 | 3.43 | 0.04 | 90 | 1011.6 |
| 20260507060229 | 52 | 19 | 4.0 | 5.0 | 0.00 | 3.43 | 0.04 | 90 | 1011.6 |
| 20260507055749 | 52 | 345 | 3.0 | 4.0 | 0.00 | 3.46 | 0.04 | 91 | 1011.6 |
| 20260507055226 | 51 | 360 | 2.0 | 4.0 | 0.00 | 3.46 | 0.04 | 91 | 1011.5 |
| 20260507054752 | 51 | 342 | 2.0 | 4.0 | 0.00 | 3.46 | 0.04 | 91 | 1011.4 |
| 20260507054251 | 51 | 321 | 3.0 | 5.0 | 0.00 | 3.46 | 0.04 | 91 | 1011.4 |
| 20260507053750 | 51 | 360 | 3.0 | 5.0 | 0.00 | 3.46 | 0.04 | 92 | 1011.3 |
| 20260507053232 | 51 | 30 | 2.0 | 8.0 | 0.00 | 3.46 | 0.04 | 91 | 1011.3 |
| 20260507052729 | 51 | 11 | 5.0 | 8.0 | 0.00 | 3.46 | 0.04 | 92 | 1011.2 |
| 20260507052229 | 50 | 25 | 3.0 | 10.0 | 0.00 | 3.46 | 0.04 | 92 | 1011.2 |
| 20260507051724 | 50 | 27 | 4.0 | 10.0 | 0.00 | 3.46 | 0.04 | 92 | 1011.2 |
| 20260507051225 | 50 | 11 | 2.0 | 6.0 | 0.00 | 3.46 | 0.04 | 92 | 1011.1 |
| 20260507050843 | 50 | 355 | 3.0 | 6.0 | 0.00 | 3.46 | 0.04 | 92 | 1010.9 |
| 20260507050329 | 50 | 324 | 1.0 | 3.0 | 0.00 | 3.46 | 0.04 | 92 | 1011.0 |
| 20260507045733 | 50 | 360 | 1.0 | 3.0 | 0.00 | 3.50 | 0.04 | 92 | 1010.9 |
| 20260507045232 | 50 | 360 | 2.0 | 6.0 | 0.00 | 3.50 | 0.04 | 92 | 1010.9 |
| 20260507044731 | 50 | 336 | 3.0 | 4.0 | 0.00 | 3.50 | 0.04 | 92 | 1010.8 |
| 20260507044228 | 50 | 349 | 3.0 | 5.0 | 0.00 | 3.50 | 0.04 | 92 | 1010.7 |
| 20260507043726 | 50 | 355 | 2.0 | 4.0 | 0.00 | 3.50 | 0.04 | 92 | 1010.6 |
| 20260507043228 | 50 | 318 | 2.0 | 4.0 | 0.00 | 3.50 | 0.04 | 92 | 1010.6 |
| 20260507042727 | 50 | 344 | 3.0 | 4.0 | 0.00 | 3.50 | 0.04 | 92 | 1010.5 |
| 20260507042255 | 50 | 293 | 2.0 | 4.0 | 0.00 | 3.50 | 0.04 | 92 | 1010.3 |
| 20260507041752 | 50 | 303 | 1.0 | 8.0 | 0.00 | 3.50 | 0.04 | 92 | 1010.4 |
| 20260507041233 | 50 | 340 | 3.0 | 6.0 | 0.00 | 3.50 | 0.04 | 92 | 1010.4 |
| 20260507040732 | 50 | 349 | 3.0 | 6.0 | 0.00 | 3.50 | 0.04 | 92 | 1010.3 |
| 20260507040232 | 50 | 5 | 2.0 | 5.0 | 0.00 | 3.50 | 0.04 | 92 | 1010.4 |
| 20260507035732 | 50 | 321 | 3.0 | 6.0 | 0.00 | 4.69 | 0.04 | 92 | 1010.4 |
| 20260507035224 | 50 | 342 | 2.0 | 6.0 | 0.00 | 4.69 | 0.04 | 92 | 1010.3 |
| 20260507034812 | 50 | 344 | 3.0 | 6.0 | 0.00 | 4.69 | 0.04 | 92 | 1010.3 |
| 20260507034241 | 50 | 340 | 3.0 | 8.0 | 0.00 | 4.69 | 0.04 | 92 | 1010.2 |
| 20260507033741 | 50 | 360 | 4.0 | 8.0 | 0.00 | 4.69 | 0.04 | 92 | 1010.3 |
| 20260507033241 | 50 | 294 | 1.0 | 4.0 | 0.00 | 4.69 | 0.04 | 92 | 1010.3 |
| 20260507032742 | 50 | 355 | 2.0 | 4.0 | 0.00 | 4.69 | 0.04 | 92 | 1010.3 |
| 20260507032251 | 50 | 284 | 2.0 | 5.0 | 0.00 | 4.69 | 0.04 | 92 | 1010.1 |
| 20260507031751 | 50 | 343 | 3.0 | 6.0 | 0.00 | 4.69 | 0.04 | 92 | 1010.2 |
| 20260507031252 | 50 | 355 | 3.0 | 4.0 | 0.00 | 4.69 | 0.04 | 92 | 1010.2 |
| 20260507030725 | 50 | 322 | 2.0 | 5.0 | 0.00 | 4.69 | 0.04 | 92 | 1010.1 |
| 20260507030245 | 50 | 355 | 2.0 | 9.0 | 0.00 | 4.69 | 0.04 | 92 | 1010.2 |
| 20260507025729 | 50 | 333 | 4.0 | 9.0 | 0.00 | 5.87 | 0.04 | 92 | 1010.2 |
| 20260507025230 | 50 | 23 | 4.0 | 6.0 | 0.00 | 5.87 | 0.04 | 92 | 1010.3 |
| 20260507024729 | 50 | 20 | 3.0 | 9.0 | 0.00 | 5.87 | 0.04 | 92 | 1010.3 |
| 20260507024247 | 50 | 355 | 2.0 | 9.0 | 0.00 | 5.87 | 0.04 | 92 | 1010.2 |
| 20260507023726 | 50 | 26 | 4.0 | 6.0 | 0.00 | 5.87 | 0.04 | 92 | 1010.2 |
| 20260507023228 | 51 | 20 | 4.0 | 6.0 | 0.00 | 5.87 | 0.04 | 93 | 1010.3 |
| 20260507022754 | 51 | 28 | 4.0 | 7.0 | 0.00 | 5.87 | 0.04 | 93 | 1010.2 |
| 20260507022232 | 51 | 324 | 4.0 | 11.0 | 0.00 | 5.87 | 0.04 | 93 | 1010.3 |
| 20260507021732 | 51 | 33 | 4.0 | 11.0 | 0.00 | 5.87 | 0.04 | 93 | 1010.4 |
| 20260507021230 | 51 | 46 | 5.0 | 9.0 | 0.00 | 5.87 | 0.04 | 93 | 1010.4 |
| 20260507020731 | 51 | 69 | 3.0 | 9.0 | 0.00 | 5.87 | 0.04 | 93 | 1010.4 |
| 20260507020229 | 51 | 325 | 4.0 | 8.0 | 0.00 | 5.87 | 0.04 | 93 | 1010.3 |
| 20260507015730 | 51 | 15 | 4.0 | 8.0 | 0.00 | 5.87 | 0.04 | 93 | 1010.3 |
| 20260507015230 | 51 | 26 | 4.0 | 8.0 | 0.00 | 5.87 | 0.04 | 93 | 1010.3 |
| 20260507014753 | 51 | 22 | 3.0 | 5.0 | 0.00 | 5.87 | 0.04 | 93 | 1010.3 |
| 20260507014231 | 51 | 5 | 3.0 | 5.0 | 0.00 | 5.87 | 0.04 | 93 | 1010.2 |
| 20260507013730 | 51 | 350 | 3.0 | 5.0 | 0.00 | 5.87 | 0.04 | 93 | 1010.2 |
| 20260507013226 | 51 | 355 | 2.0 | 4.0 | 0.00 | 5.87 | 0.04 | 93 | 1010.2 |
| 20260507012751 | 51 | 22 | 2.0 | 4.0 | 0.00 | 5.87 | 0.04 | 93 | 1010.1 |
| 20260507012250 | 51 | 22 | 2.0 | 4.0 | 0.00 | 5.87 | 0.04 | 93 | 1010.1 |
| 20260507011747 | 51 | 245 | 1.0 | 3.0 | 0.00 | 5.87 | 0.04 | 93 | 1010.2 |
| 20260507011248 | 51 | 245 | 1.0 | 5.0 | 0.00 | 5.87 | 0.04 | 93 | 1010.1 |
| 20260507010749 | 51 | 334 | 1.0 | 6.0 | 0.00 | 5.87 | 0.04 | 92 | 1010.1 |
| 20260507010230 | 51 | 355 | 3.0 | 6.0 | 0.00 | 5.87 | 0.04 | 92 | 1010.0 |
| 20260507005749 | 51 | 10 | 3.0 | 5.0 | 0.00 | 5.91 | 0.04 | 92 | 1010.1 |
| 20260507005250 | 51 | 347 | 2.0 | 4.0 | 0.00 | 5.91 | 0.04 | 92 | 1010.1 |
| 20260507004751 | 51 | 322 | 2.0 | 4.0 | 0.00 | 5.91 | 0.04 | 92 | 1010.1 |
| 20260507004251 | 51 | 346 | 2.0 | 5.0 | 0.04 | 5.91 | 0.04 | 92 | 1010.0 |
| 20260507003748 | 51 | 332 | 2.0 | 6.0 | 0.04 | 5.91 | 0.04 | 92 | 1010.0 |
| 20260507003245 | 51 | 17 | 2.0 | 7.0 | 0.08 | 5.91 | 0.04 | 92 | 1009.9 |
| 20260507002741 | 51 | 11 | 2.0 | 7.0 | 0.08 | 5.91 | 0.04 | 92 | 1009.9 |
| 20260507002306 | 51 | 340 | 4.0 | 9.0 | 0.08 | 5.91 | 0.04 | 92 | 1009.9 |
| 20260507001738 | 51 | 11 | 3.0 | 13.0 | 0.08 | 5.91 | 0.04 | 92 | 1009.8 |
| 20260507001235 | 51 | 5 | 4.0 | 9.0 | 0.08 | 5.91 | 0.04 | 92 | 1010.0 |
| 20260507000725 | 51 | 24 | 3.0 | 6.0 | 0.08 | 5.91 | 0.04 | 92 | 1009.9 |
| 20260507000243 | 51 | 317 | 3.0 | 5.0 | 0.08 | 5.91 | 0.04 | 92 | 1010.1 |
| 20260506235811 | 51 | 351 | 3.0 | 5.0 | 0.08 | 5.91 | 0.04 | 92 | 1010.1 |
| 20260506235249 | 51 | 310 | 2.0 | 4.0 | 0.08 | 5.91 | 0.04 | 92 | 1010.1 |
| 20260506234806 | 51 | 314 | 3.0 | 4.0 | 0.08 | 5.91 | 0.04 | 92 | 1010.2 |
| 20260506233742 | 51 | 337 | 4.0 | 8.0 | 0.04 | 5.87 | 0.03 | 92 | 1009.8 |
| 20260506233241 | 51 | 26 | 4.0 | 10.0 | 0.00 | 5.83 | 0.02 | 92 | 1009.7 |
| 20260506232740 | 51 | 343 | 5.0 | 10.0 | 0.00 | 5.83 | 0.02 | 92 | 1009.8 |
| 20260506232237 | 51 | 314 | 3.0 | 9.0 | 0.04 | 5.83 | 0.02 | 92 | 1009.8 |
| 20260506231736 | 51 | 5 | 3.0 | 6.0 | 0.04 | 5.83 | 0.02 | 92 | 1010.0 |
| 20260506231234 | 52 | 325 | 3.0 | 6.0 | 0.04 | 5.83 | 0.02 | 92 | 1010.0 |
| 20260506230732 | 52 | 323 | 2.0 | 8.0 | 0.08 | 5.83 | 0.02 | 92 | 1009.9 |
| 20260506230229 | 51 | 347 | 4.0 | 10.0 | 0.08 | 5.83 | 0.02 | 92 | 1009.8 |
| 20260506225743 | 51 | 343 | 6.0 | 10.0 | 0.08 | 5.91 | 0.02 | 93 | 1009.7 |
| 20260506225311 | 52 | 5 | 5.0 | 9.0 | 0.08 | 5.91 | 0.02 | 93 | 1009.8 |
| 20260506224745 | 52 | 337 | 6.0 | 9.0 | 0.08 | 5.91 | 0.02 | 93 | 1009.8 |